Forest City, IA

8:13 AM CDT on July 20, 2017 (GMT -0500)
Forest City Municipal

Weather History for KFXY - April, 2014

Change the Weather History Date:

Wednesday, April 30, 2014

  Actual Average Record
Temperature  
Mean Temperature 37 °F -  
Max Temperature 41 °F 65 °F 73 °F (2013)
Min Temperature 33 °F 42 °F 33 °F (2014)
Degree Days  
Heating Degree Days 28    
Moisture  
Dew Point 38 °F    
Average Humidity 99    
Maximum Humidity 100    
Minimum Humidity 93    
Precipitation  
Precipitation 0.05 in - - ()
Sea Level Pressure  
Sea Level Pressure 29.74 in    
Wind  
Wind Speed 13 mph (NW)    
Max Wind Speed 16 mph    
Max Gust Speed 22 mph    
Visibility 7 miles    
Events Rain , Snow    
Averages and records for this station are not official NWS values.
T = Trace of Precipitation, MM = Missing Value Source: NWS Daily Summary

Daily Weather History Graph

Daily Weather History Graph

Search for Another Location

Airport or City:

Trip Planner

Search our weather history database for the weather conditions in past years. The results will help you decide how hot, cold, wet, or windy it might be!

Date:

Astronomy

Apr. 30, 2014 Rise Set
Actual Time 6:09 AM CDT 8:14 PM CDT
Civil Twilight 5:38 AM CDT 8:46 PM CDT
Nautical Twilight 4:59 AM CDT 9:24 PM CDT
Astronomical Twilight 4:18 AM CDT 10:06 PM CDT
Moon 7:09 AM CDT (4/30) 9:55 PM CDT (4/30)
Length of Visible Light 15h 07m
Length of Day
14h 05m
New Moon, 2% of the Moon is Illuminated
Apr 30
New Moon
May 6
First Quarter
May 14
Full
May 21
Last Quarter
May 28
New

Hourly Weather History & Observations

Time (CDT) Temp. Windchill Dew Point Humidity Pressure Visibility Wind Dir Wind Speed Gust Speed Precip Events Conditions
12:15 AM 33.8 °F 23.5 °F 33.8 °F 100% 29.71 in 10.0 mi NNW 16.1 mph - N/A   Light Drizzle
12:35 AM 33.8 °F 24.8 °F 33.8 °F 100% 29.71 in 10.0 mi NNW 12.7 mph 20.7 mph N/A   Light Drizzle
12:55 AM 35.6 °F 27.1 °F 35.6 °F 100% 29.71 in 10.0 mi NNW 12.7 mph 18.4 mph N/A Rain Light Rain
1:15 AM 33.8 °F 25.8 °F 33.8 °F 100% 29.72 in 10.0 mi NW 10.4 mph - N/A   Drizzle
1:35 AM 33.8 °F 25.3 °F 33.8 °F 100% 29.71 in 10.0 mi NNW 11.5 mph 17.3 mph N/A Rain Light Rain
1:55 AM 35.6 °F 27.1 °F 35.6 °F 100% 29.71 in 10.0 mi NNW 12.7 mph 17.3 mph N/A   Light Drizzle
2:15 AM 35.6 °F 28.6 °F 35.6 °F 100% 29.71 in 10.0 mi NNW 9.2 mph - N/A   Overcast
2:35 AM 35.6 °F 27.5 °F 35.6 °F 100% 29.71 in 10.0 mi NNW 11.5 mph - N/A   Overcast
2:55 AM 35.6 °F 27.1 °F 35.6 °F 100% 29.72 in 10.0 mi NNW 12.7 mph - N/A   Overcast
3:15 AM 35.6 °F 27.1 °F 35.6 °F 100% 29.72 in 10.0 mi NNW 12.7 mph 18.4 mph N/A   Overcast
3:35 AM 33.8 °F 25.3 °F 33.8 °F 100% 29.72 in 7.0 mi NNW 11.5 mph - N/A Rain Light Rain
3:55 AM 33.8 °F 24.8 °F 33.8 °F 100% 29.72 in 5.0 mi NNW 12.7 mph - N/A Snow Light Snow
4:15 AM 33.8 °F 25.8 °F 33.8 °F 100% 29.72 in 7.0 mi NNW 10.4 mph - 0.01 in Snow Light Snow
4:35 AM 35.6 °F 27.1 °F 35.6 °F 100% 29.71 in 10.0 mi NNW 12.7 mph - 0.01 in Rain Light Rain
4:55 AM 35.6 °F 27.5 °F 35.6 °F 100% 29.72 in 10.0 mi NNW 11.5 mph - 0.01 in Rain Light Rain
5:15 AM 33.8 °F 27.0 °F 33.8 °F 100% 29.72 in 10.0 mi NW 8.1 mph - N/A Rain Light Rain
5:35 AM 33.8 °F 25.8 °F 33.8 °F 100% 29.72 in 7.0 mi NW 10.4 mph - N/A Rain Light Rain
5:55 AM 33.8 °F 25.3 °F 33.8 °F 100% 29.72 in 7.0 mi NW 11.5 mph 17.3 mph N/A Rain Light Rain
6:15 AM 33.8 °F 24.3 °F 33.8 °F 100% 29.72 in 7.0 mi NW 13.8 mph - N/A Snow Light Snow
6:35 AM 33.8 °F 25.3 °F 33.8 °F 100% 29.72 in 5.0 mi NW 11.5 mph 19.6 mph N/A Snow Light Snow
6:55 AM 33.8 °F 25.3 °F 33.8 °F 100% 29.72 in 4.0 mi NW 11.5 mph 18.4 mph 0.01 in Snow Light Snow
7:15 AM 33.8 °F 25.8 °F 33.8 °F 100% 29.72 in 5.0 mi NW 10.4 mph - N/A   Overcast
7:35 AM 35.6 °F 27.1 °F 35.6 °F 100% 29.72 in 7.0 mi NW 12.7 mph 16.1 mph N/A Rain Light Rain
7:55 AM 35.6 °F 27.1 °F 35.6 °F 100% 29.72 in 7.0 mi NW 12.7 mph 17.3 mph N/A Rain Light Rain
8:15 AM 35.6 °F 27.1 °F 35.6 °F 100% 29.72 in 7.0 mi NW 12.7 mph - N/A Rain Light Rain
8:35 AM 35.6 °F 26.6 °F 35.6 °F 100% 29.72 in 7.0 mi NNW 13.8 mph 19.6 mph 0.01 in Rain Rain
8:55 AM 35.6 °F 26.6 °F 35.6 °F 100% 29.72 in 7.0 mi NNW 13.8 mph 17.3 mph 0.01 in Rain Rain
9:15 AM 35.6 °F 27.5 °F 35.6 °F 100% 29.73 in 5.0 mi NNW 11.5 mph 18.4 mph N/A Rain Rain
9:35 AM 37.4 °F 29.3 °F 37.4 °F 100% 29.73 in 5.0 mi NNW 12.7 mph 16.1 mph N/A Rain Rain
9:55 AM 37.4 °F 28.2 °F 37.4 °F 100% 29.73 in 4.0 mi NNW 16.1 mph - N/A Rain Light Rain
10:15 AM 37.4 °F 29.8 °F 37.4 °F 100% 29.74 in 2.5 mi NNW 11.5 mph - N/A   Drizzle
10:35 AM 37.4 °F 28.9 °F 37.4 °F 100% 29.74 in 2.0 mi NNW 13.8 mph 18.4 mph N/A Rain Light Rain
10:55 AM 37.4 °F 28.9 °F 37.4 °F 100% 29.74 in 2.5 mi NNW 13.8 mph - N/A Rain Rain
11:15 AM 37.4 °F 29.8 °F 37.4 °F 100% 29.74 in 2.5 mi NNW 11.5 mph 17.3 mph N/A Rain Light Rain
11:35 AM 37.4 °F 28.2 °F 37.4 °F 100% 29.74 in 4.0 mi NNW 16.1 mph 19.6 mph N/A Rain Light Rain
11:55 AM 39.2 °F 31.2 °F 39.2 °F 100% 29.74 in 7.0 mi NNW 13.8 mph - N/A   Overcast
12:15 PM 39.2 °F 31.6 °F 37.4 °F 93% 29.74 in 10.0 mi NNW 12.7 mph 20.7 mph N/A   Overcast
12:35 PM 39.2 °F 30.8 °F 37.4 °F 93% 29.74 in 7.0 mi NNW 15.0 mph - N/A   Overcast
12:55 PM 39.2 °F 30.5 °F 39.2 °F 100% 29.74 in 5.0 mi NNW 16.1 mph 20.7 mph N/A   Overcast
1:15 PM 39.2 °F 30.5 °F 39.2 °F 100% 29.74 in 5.0 mi NNW 16.1 mph 21.9 mph N/A Rain Rain
1:35 PM 39.2 °F 31.6 °F 39.2 °F 100% 29.74 in 5.0 mi NNW 12.7 mph - N/A   Drizzle
1:55 PM 39.2 °F 31.6 °F 39.2 °F 100% 29.75 in 4.0 mi NNW 12.7 mph 17.3 mph N/A Rain Rain
2:15 PM 39.2 °F 32.0 °F 39.2 °F 100% 29.75 in 2.5 mi NNW 11.5 mph 19.6 mph N/A Rain Rain
2:55 PM 41.0 °F 32.8 °F 41.0 °F 100% 29.75 in 3.0 mi NW 16.1 mph 21.9 mph N/A Rain Rain
3:15 PM 41.0 °F 34.3 °F 41.0 °F 100% 29.76 in 5.0 mi NNW 11.5 mph 19.6 mph N/A Rain Light Rain
3:35 PM 41.0 °F 34.7 °F 41.0 °F 100% 29.76 in 4.0 mi NNW 10.4 mph 18.4 mph 0.01 in Rain Rain
3:55 PM 41.0 °F 32.8 °F 41.0 °F 100% 29.75 in 2.5 mi NNW 16.1 mph 20.7 mph 0.01 in   Drizzle
4:15 PM 41.0 °F 32.8 °F 41.0 °F 100% 29.75 in 2.5 mi NNW 16.1 mph 19.6 mph N/A Rain Rain
4:35 PM 41.0 °F 33.1 °F 41.0 °F 100% 29.75 in 3.0 mi NNW 15.0 mph 20.7 mph N/A   Drizzle
4:55 PM 41.0 °F 33.9 °F 41.0 °F 100% 29.75 in 4.0 mi NNW 12.7 mph 18.4 mph N/A   Light Drizzle
5:15 PM 41.0 °F 34.3 °F 41.0 °F 100% 29.75 in 4.0 mi NW 11.5 mph - N/A   Drizzle
5:35 PM 41.0 °F 34.7 °F 41.0 °F 100% 29.75 in 7.0 mi NW 10.4 mph 17.3 mph N/A Rain Rain
5:55 PM 41.0 °F 34.7 °F 41.0 °F 100% 29.75 in 7.0 mi NW 10.4 mph 17.3 mph 0.01 in Rain Rain
6:15 PM 41.0 °F 35.2 °F 41.0 °F 100% 29.76 in 5.0 mi NW 9.2 mph - N/A   Drizzle
6:35 PM 41.0 °F 35.8 °F 41.0 °F 100% 29.75 in 10.0 mi NW 8.1 mph - N/A   Overcast
6:55 PM 41.0 °F 34.7 °F 41.0 °F 100% 29.75 in 10.0 mi NW 10.4 mph - N/A   Light Drizzle
7:15 PM 41.0 °F 35.2 °F 41.0 °F 100% 29.75 in 10.0 mi NW 9.2 mph - N/A   Overcast
7:35 PM 41.0 °F 34.7 °F 41.0 °F 100% 29.75 in 10.0 mi NW 10.4 mph - N/A   Light Drizzle
7:55 PM 41.0 °F 33.9 °F 41.0 °F 100% 29.76 in 10.0 mi NW 12.7 mph 18.4 mph N/A   Light Drizzle
8:15 PM 41.0 °F 33.1 °F 41.0 °F 100% 29.76 in 10.0 mi NW 15.0 mph - N/A   Light Drizzle
8:35 PM 41.0 °F 33.9 °F 41.0 °F 100% 29.76 in 10.0 mi NW 12.7 mph 18.4 mph N/A   Overcast
8:55 PM 41.0 °F 33.1 °F 41.0 °F 100% 29.75 in 10.0 mi NW 15.0 mph - N/A   Overcast
9:15 PM 41.0 °F 33.9 °F 39.2 °F 93% 29.76 in 10.0 mi NW 12.7 mph 20.7 mph N/A   Light Drizzle
9:35 PM 41.0 °F 34.3 °F 39.2 °F 93% 29.76 in 10.0 mi NW 11.5 mph 18.4 mph N/A   Light Drizzle
9:55 PM 41.0 °F 34.3 °F 39.2 °F 93% 29.76 in 10.0 mi NW 11.5 mph 16.1 mph N/A   Light Drizzle
10:15 PM 41.0 °F 33.9 °F 39.2 °F 93% 29.76 in 10.0 mi NW 12.7 mph 18.4 mph N/A   Drizzle
10:35 PM 41.0 °F 33.5 °F 39.2 °F 93% 29.76 in 7.0 mi NW 13.8 mph 18.4 mph N/A Rain Light Rain
10:55 PM 41.0 °F 34.7 °F 39.2 °F 93% 29.76 in 5.0 mi NW 10.4 mph - N/A Rain Light Rain
11:15 PM 41.0 °F 34.7 °F 41.0 °F 100% 29.75 in 10.0 mi NW 10.4 mph - N/A   Overcast
11:35 PM 41.0 °F 33.9 °F 41.0 °F 100% 29.75 in 10.0 mi NW 12.7 mph 17.3 mph N/A   Drizzle
11:55 PM 41.0 °F 33.1 °F 39.2 °F 93% 29.75 in 10.0 mi NW 15.0 mph 19.6 mph N/A Rain Light Rain